Location: Buena Vista
(37.7110°N, 119.7938°W)
Time: 13:51:03
(UTC+00:00)

XW-2C - Visible Passes

Search period start: 03 October 2024 00:00
Search period end: 13 October 2024 00:00
Orbit: 402 x 407 km, 97.5° (Epoch: 03 October)

Date Brightness Start Highest point End Pass type
(mag) Time Alt. Az. Time Alt. Az. Time Alt. Az.
03 Oct ? 02:59:50 10° SSW 03:02:42 33° W 03:05:36 10° NNW visible
04 Oct ? 02:11:02 10° SE 02:13:56 36° ENE 02:16:52 10° N visible
05 Oct ? 02:53:45 10° S 02:56:44 41° W 02:59:44 10° NNW visible
06 Oct ? 02:04:58 10° SE 02:07:43 29° ENE 02:10:29 10° N visible
07 Oct ? 02:47:05 10° S 02:50:08 54° W 02:53:13 10° NNW visible
08 Oct ? 01:58:21 10° SE 02:00:52 23° ENE 02:03:24 10° NNE visible
08 Oct ? 03:31:10 10° WSW 03:32:39 13° W 03:34:08 10° WNW visible
09 Oct ? 02:39:51 10° S 02:42:56 75° WSW 02:46:03 10° NNW visible
10 Oct ? 03:23:02 10° SW 03:25:05 16° W 03:27:09 10° NW visible
11 Oct ? 02:32:02 10° SSE 02:35:07 79° ENE 02:38:13 10° N visible
12 Oct ? 03:14:26 10° SSW 03:16:53 21° W 03:19:21 10° NW visible
